Regional Weather Roundup
Issued by NWS

Home | Current Version | Previous Version | Graphics & Text | Print | Product List | Glossary On
Versions: 1 2 3 4 5 6 7 8 9 10 11 12 13 14 15 16 17 18 19 20 21 22 23 24 25 26 27 28 29 30 31 32 33 34 35 36 37 38 39 40 41 42 43 44 45 46 47 48 49 50
000
ASUS43 KMKX 240121
RWRWI

WISCONSIN REGIONAL WEATHER ROUNDUP
NATIONAL WEATHER SERVICE MILWAUKEE/SULLIVAN WI
800 PM CDT MON MAY 23 2016

NOTE: "FAIR" INDICATES FEW OR NO CLOUDS BELOW 12,000 FEET WITH NO
SIGNIFICANT WEATHER AND/OR OBSTRUCTIONS TO VISIBILITY.

WIZ001-002-006>008-014>016-023>028-240200-
NORTHWEST WISCONSIN

CITY           SKY/WX    TMP DP  RH WIND       PRES   REMARKS
SUPERIOR ARPT  HVY RAIN  68  64  86 SW8       29.73R
ASHLAND        LGT RAIN  65  64  97 S7        29.79R FOG
HAYWARD        CLOUDY    65  59  81 S7        29.79F
SIREN          MOCLDY    68  66  94 CALM      29.76R
CUMBERLAND     CLOUDY    68  59  73 SW12      29.79R
RICE LAKE      CLOUDY    73  58  58 SW9G18    29.79S
CHETEK         CLOUDY    66  65  97 CALM      29.78S
LADYSMITH      CLOUDY    71  61  69 W14       29.81R
EAU CLAIRE     CLOUDY    71  65  81 CALM      29.76F
MENOMONIE      CLOUDY    72  64  73 SW8       29.77R
NEW RICHMOND   CLOUDY    71  58  63 SW12      29.76S
OSCEOLA        MOCLDY    73  60  65 S8        29.78R
$$

WIZ003>005-009-010-017-018-240200-
NORTH CENTRAL WISCONSIN

CITY           SKY/WX    TMP DP  RH WIND       PRES   REMARKS
MANITOWISH WTR CLOUDY    67  60  77 CALM      29.80S
ARBOR VITAE    CLOUDY    77  47  34 S10G17    29.81S
WOODRUFF       CLOUDY    77  47  34 S10G17    29.81S
RHINELANDER    CLOUDY    77  44  30 SW8       29.83S
EAGLE RIVER      N/A     76  39  26 SW6       29.82R
LAND O LAKES   CLOUDY    77  40  26 S6        29.82S
PHILLIPS       CLOUDY    76  50  40 SW9       29.79R
TOMAHAWK       MOCLDY    74  46  37 S5        29.82S
MEDFORD        MOCLDY    76  47  35 S10       29.81S
MERRILL        CLOUDY    77  47  35 S7        29.83S
$$

WIZ029-030-035-036-043>047-240200-
CENTRAL WISCONSIN

CITY           SKY/WX    TMP DP  RH WIND       PRES   REMARKS
WAUSAU         CLOUDY    79  45  29 S13       29.81S
MOSINEE        CLEAR     73  45  35 S10       29.84S
MARSHFIELD     PTCLDY    76  45  33 S12       29.81F
STEVENS POINT  PTCLDY    77  44  30 S8        29.83F
WAUPACA        CLOUDY    75  46  35 S5        29.84S
WAUTOMA        CLOUDY    79  47  32 S7        29.84F
WISC RAPIDS    CLOUDY    78  43  28 S9        29.83F
CAMP DOUGLAS   CLEAR     78  47  33 S6        29.82F
$$

WIZ011>013-019>022-031-037>040-048>050-240200-
NORTHEAST WISCONSIN

CITY           SKY/WX    TMP DP  RH WIND       PRES   REMARKS
ANTIGO         CLOUDY    74  45  36 S8        29.85R
SHAWANO        CLOUDY    79  43  27 S3        29.84S
OCONTO         CLOUDY    68  48  48 S8        29.84S
STURGEON BAY   NOT AVBL
GREEN BAY      CLEAR     73  45  36 S13       29.85S
MANITOWOC      CLEAR     64  39  39 S14       29.89F
APPLETON       PTCLDY    73  46  38 S13       29.84F
CLINTONVILLE   CLOUDY    77  41  27 S9        29.83F
OSHKOSH        CLEAR     72  48  42 S9        29.85F
$$

WIZ032>034-041-042-053>061-240200-
SOUTHWEST WISCONSIN

CITY           SKY/WX    TMP DP  RH WIND       PRES   REMARKS
LA CROSSE      PTCLDY    74  55  51 SW16      29.80F
SPARTA         MOCLDY    79  46  30 S8        29.81F
VIROQUA        PTCLDY    77  43  29 S9        29.84F
BOSCOBEL       NOT AVBL
PRAIRIE DU CHI PTCLDY    79  42  27 S5        29.82S
PLATTEVILLE    CLEAR     75  45  33 S8        29.86F
$$

WIZ056-057-062-063-064-067-068-240200-
SOUTH CENTRAL WISCONSIN

CITY           SKY/WX    TMP DP  RH WIND       PRES   REMARKS
REEDSBURG      CLEAR     76  46  34 S7        29.84F
BARABOO/DELLS  CLEAR     77  41  27 S8        29.85F
LONE ROCK      CLEAR     77  47  34 S8        29.85F
MINERAL POINT  CLEAR     75  43  31 S6        29.87F
MADISON        CLOUDY    78  47  33 S7        29.86S
MIDDLETON      CLOUDY    78  42  27 SW7       29.87S
WATERTOWN      CLOUDY    75  48  38 S5        29.87F
MONROE         CLEAR     73  43  33 S8        29.88S
JANESVILLE     CLEAR     79  43  27 S5        29.88F
$$

WIZ051-052-058>065-066-070>072-240200-
SOUTHEAST WISCONSIN

CITY           SKY/WX    TMP DP  RH WIND       PRES   REMARKS
MILWAUKEE      MOCLDY    69  36  29 S8        29.91F
WAUKESHA       CLEAR     70  39  32 SE12      29.91F
MILWAUKEE/TIMM CLEAR     73  30  20 S10       29.91S
RACINE         CLEAR     66  37  34 S7        29.93F
BURLINGTON     PTCLDY    71  40  33 E7        29.90F
KENOSHA        CLEAR     68  39  34 SE7       29.91F
FOND DU LAC    CLEAR     73  48  41 S8        29.86F
SHEBOYGAN      CLEAR     66  37  34 S8        29.90F
WEST BEND      CLEAR     70  39  32 SE5       29.89F
JUNEAU         CLOUDY    75  47  36 S9        29.88F
$$

LSZ147-162-240200-
LAKE SUPERIOR

STATION/POSITION TIME  TEMP    WIND        PRES    WAVE
                       AIR SEA DIR/SP/G            HT/PER
                 (UTC) (F)     (DEG/KT/KT) (MB)    (FT/S)
W MID LAKE BUOY  0050   53 38  210/ 16/ 19 1009.0R   1/ 4
DEVILS ISLAND    0100   65     190/ 11/ 15 1007.1F
SAXON HARBOR     0000   63     330/  2/  9 1008.1R
$$

LMZ867-665-643>646-240200-
LAKE MICHIGAN

STATION/POSITION TIME  TEMP    WIND        PRES    WAVE
                       AIR SEA DIR/SP/G            HT/PER
                 (UTC) (F)     (DEG/KT/KT) (MB)    (FT/S)
CHAMBERS ISLAND  0000   67     150/  8/ 16 1010.8S
N MID LAKE BUOY  0050   52 45  200/ 16/ 16 1011.5F   3/ 4
NORTHPORT PIER   0000   64     160/ 11/ 22 1011.5F
KEWAUNEE LAKESHO 0100   54                   N/A
SHEBOYGAN LAKESH 0100   58     180/ 16/ 17 1012.7F
PORT WASHINGTON  0000   60     190/  4/  7 1013.5
S MID LAKE BUOY  0050   60 51  130/  8/  8 1013.3F   0
KENOSHA   LAKESH 0100   63     180/ 11/ 13 1012.9S
$$

TC  - TEMPERATURE IN CELSIUS
VSB - VISIBILITY IN STATUTE MILES
WCI - WIND CHILL INDEX
HX  - HEAT INDEX




USA.gov is the U.S. government's official web portal to all federal, state and local government web resources and services.